Home > Weather > U.S.A. > Charlottesville > Past weeks

Flag for U.S.A. Weather past 2 weeks in Charlottesville, Virginia, U.S.A.

44 °F

Light rain. Fog.

Feels Like: 43 °F
Forecast: 42 / 51 °F
Wind: 3 mph from South

Location: Charlottesville-Albemarle Airport

Current Time: Dec 1, 2015 at 11:59:38 AM

Latest Report: Dec 1, 2015 at 10:53 AM

Visibility: 1 mi

Pressure: 30.13 "Hg

Humidity: 93%

Dew point: 42 °F

Location of CharlottesvilleLocation

Historic Weather in Charlottesville — Graph


Charlottesville temperature yesterday

Maximum temperature yesterday: 43 °F (at 12:53 AM)
Minimum temperature yesterday: 39 °F (at 5:53 AM)
Average temperature yesterday: 41 °F

Past Weeks' High & Low Weather Summary

High71 °F (Nov 28, 12:53 PM)96% (Nov 30, 9:00 PM)30.78 "Hg (Nov 30, 9:00 PM)
Low29 °F (Nov 21, 4:53 AM)17% (Nov 20, 1:53 PM)29.90 "Hg (Nov 22, 3:53 AM)
Average49 °F64%30.28 "Hg
* Reported Nov 16 10:53 AM — Dec 1 10:53 AM, Charlottesville, Weather by CustomWeather, © 2015

Note: Actual official high and low records may vary slightly from our data, if they occured in-between our weather recording intervals... More about our weather records


Charlottesville weather history for previous 24 hours

Time TempWeatherWind HumidityBarometerVisibility
10:53 AM
Tue, Dec 1
44 °FLight rain. Fog.3 mph93%30.13 "Hg1 mi
9:53 AM44 °FRain. Fog.No wind89%30.14 "Hg1 mi
8:53 AM43 °FRain. Fog.No wind93%30.14 "Hg1 mi
7:53 AM43 °FLight rain. Fog.No wind93%30.13 "Hg1 mi
6:53 AM43 °FLight rain. Fog.No wind93%30.14 "Hg3 mi
5:53 AM43 °FLight rain. Fog.No wind93%30.15 "Hg3 mi
4:53 AM43 °FLight rain. Fog.No wind89%30.14 "Hg6 mi
3:53 AM43 °FLight rain. Fog.No wind89%30.15 "Hg3 mi
2:53 AM43 °FLight rain. Fog.No wind89%30.16 "Hg4 mi
1:53 AM42 °FFog.No wind92%30.17 "Hg4 mi
1:02 AM42 °FFog.No wind92%30.18 "Hg2 mi
11:53 PM
Mon, Nov 30
42 °FLight rain. Fog.No wind92%30.20 "Hg3 mi
11:04 PM42 °FLight rain. Fog.No wind92%30.21 "Hg3 mi
9:53 PM42 °FLight rain. Fog.No wind89%30.23 "Hg2 mi
9:00 PM41 °FLight rain. Fog.No wind96%30.24 "Hg2 mi
7:53 PM41 °FLight rain. Fog.No wind93%30.26 "Hg2 mi
5:53 PM40 °FLight rain. Fog.5 mph93%30.27 "Hg2 mi
5:00 PM40 °FLight rain. Fog.5 mph93%30.27 "Hg3 mi
3:53 PM40 °FLight rain. Fog.7 mph93%30.27 "Hg1 mi
2:55 PM40 °FLight rain. Fog.9 mph89%30.26 "Hg1 mi
1:53 PM40 °FLight rain. Fog.6 mph93%30.28 "Hg1 mi
12:53 PM40 °FLight rain. Fog.5 mph93%30.29 "Hg1 mi
12:00 PM40 °FLight rain. Fog.6 mph89%30.31 "Hg1 mi
11:00 AM39 °FFog.6 mph89%30.34 "Hg2 mi
Weather by CustomWeather, © 2015

See weather overviewHow to use our weather pages